(360935) = 1996 BS14 = 2005 TN151 = 2005 TV65

Discovered at Kitt Peak on 2005-10-08 by Spacewatch.

Orbit

Orbit type: Main Belt

Note: WebGL enabled browser required.

epoch2024-03-31.0
epoch JD2460400.5
perihelion date2023-04-03.26178
perihelion JD2460037.76179
argument of perihelion (°)85.64602
ascending node (°)41.87196
inclination (°)3.40203
eccentricity0.1221854
perihelion distance (AU)2.7095370
Tisserand w.r.t. Jupiter3.2
ΔV w.r.t. Earth (km/sec)10.3
semimajor axis (AU)3.0866847
mean anomaly (°)65.92634
mean daily motion (°/day)0.18174630
aphelion distance (AU)3.464
period (years)5.42
P-vector [x]-0.60783750
P-vector [y]0.70297501
P-vector [z]0.36926916
Q-vector [x]-0.79307296
Q-vector [y]-0.56063953
Q-vector [z]-0.23815668
absolute magnitude16.94
phase slope0.15
uncertainty0
referenceE2024-G51
observations used164
oppositions13
arc length (days)10304
first opposition used1996
last opposition used2024
residual rms (arc-secs)0.92
perturbers coarse indicatorM-v
perturbers precise indicator003Ek
first observation date used1996-01-18.0
last observation date used2024-04-04.0
computer nameMPCLINUX
Minimum Orbit Intersection Distances (in AU)
for orbit epoch: 2460400.5, reference: E2024-GB3
Mercury2.37418
Venus1.99117
Earth1.72787
Mars1.05841
Jupiter1.59507
Saturn6.17352
Uranus15.6234
Neptune26.5825

Observations

164 total observations over interval: 1996 01 18.28241 – 2023 01 20.366296
These data are available for download (format description).

Date (UT) J2000 RA J2000 Dec Magn Location Ref
1996 01 18.28241 08 47 29.08 +23 23 46.1   691 – Steward Observatory, Kitt Peak-Spacewatch MPC 26701
1996 01 18.30536 08 47 27.93 +23 23 51.1   691 – Steward Observatory, Kitt Peak-Spacewatch MPC 26701
1996 01 18.32831 08 47 26.73 +23 23 57.1 21.1 V 691 – Steward Observatory, Kitt Peak-Spacewatch MPC 26701
1996 01 25.23903 08 41 26.17 +23 49 47.1   691 – Steward Observatory, Kitt Peak-Spacewatch MPC 26701
1996 01 25.28426 08 41 23.65 +23 49 56.8 20.5 V 691 – Steward Observatory, Kitt Peak-Spacewatch MPC 26701
2002 04 07.06374 12 28 03.99 +00 01 40.6 19.8 R 807 – Cerro Tololo Observatory, La Serena MPS 155344
2002 04 07.11828 12 28 01.45 +00 01 52.1   807 – Cerro Tololo Observatory, La Serena MPS 155344
2002 04 14.25060 12 22 53.35 +00 25 26.4 21.8 V 691 – Steward Observatory, Kitt Peak-Spacewatch MPS 155344
2002 04 14.27358 12 22 52.37 +00 25 30.4 21.8 V 691 – Steward Observatory, Kitt Peak-Spacewatch MPS 155344
2002 04 14.29681 12 22 51.37 +00 25 34.6 22.4 V 691 – Steward Observatory, Kitt Peak-Spacewatch MPS 155344
2005 10 01.36800 02 55 05.98 +15 56 59.3 21.7 V G96 – Mt. Lemmon Survey MPS 147662
2005 10 01.37494 02 55 05.80 +15 56 59.6 21.7 V G96 – Mt. Lemmon Survey MPS 147662
2005 10 01.38186 02 55 05.62 +15 56 59.1 21.7 V G96 – Mt. Lemmon Survey MPS 147662
2005 10 01.38881 02 55 05.34 +15 56 58.7 20.9 V G96 – Mt. Lemmon Survey MPS 147662
2005 10 08.49838 02 51 35.64 +15 47 40.7 22.4 V 291 – LPL/Spacewatch II MPS 147748
2005 10 08.50415 02 51 35.43 +15 47 40.3 22.0 V 291 – LPL/Spacewatch II MPS 147748
2005 10 08.50999 02 51 35.17 +15 47 39.2 22.0 V 291 – LPL/Spacewatch II MPS 147748
2005 10 12.47970 02 49 11.75 +15 40 39.9 21.7 V 691 – Steward Observatory, Kitt Peak-Spacewatch MPS 147748
2005 10 12.49709 02 49 11.02 +15 40 37.7 21.2 V 691 – Steward Observatory, Kitt Peak-Spacewatch MPS 147748
2005 10 12.51448 02 49 10.32 +15 40 35.5 21.6 V 691 – Steward Observatory, Kitt Peak-Spacewatch MPS 147748
2005 10 24.20485 02 40 40.73 +15 13 33.8 21.2 V 691 – Steward Observatory, Kitt Peak-Spacewatch MPS 149696
2005 10 24.22219 02 40 39.85 +15 13 31.6 21.0 V 691 – Steward Observatory, Kitt Peak-Spacewatch MPS 149696
2005 10 24.23962 02 40 39.02 +15 13 28.3 21.3 V 691 – Steward Observatory, Kitt Peak-Spacewatch MPS 149696
2005 10 25.50968 02 39 37.33 +15 10 04.1 21.1 r 568 – Maunakea MPS 254503
2005 10 25.54219 02 39 35.70 +15 09 58.7 20.9 r 568 – Maunakea MPS 254503
2005 10 25.57629 02 39 33.99 +15 09 52.9 21.0 r 568 – Maunakea MPS 254503
2005 10 28.19553 02 37 25.24 +15 02 35.8 21.4 V 691 – Steward Observatory, Kitt Peak-Spacewatch MPS 149696
2005 10 28.21298 02 37 24.35 +15 02 33.3 21.4 V 691 – Steward Observatory, Kitt Peak-Spacewatch MPS 149696
2005 10 28.23037 02 37 23.45 +15 02 30.3 21.3 V 691 – Steward Observatory, Kitt Peak-Spacewatch MPS 149696
2005 11 01.17440 02 34 04.71 +14 51 07.2 20.9 V 691 – Steward Observatory, Kitt Peak-Spacewatch MPS 149696
2005 11 01.19171 02 34 03.80 +14 51 04.1 21.2 V 691 – Steward Observatory, Kitt Peak-Spacewatch MPS 149696
2005 11 01.20902 02 34 02.91 +14 51 01.1 21.5 V 691 – Steward Observatory, Kitt Peak-Spacewatch MPS 149696
2005 11 05.14178 02 30 42.71 +14 39 21.3 20.9 V 691 – Steward Observatory, Kitt Peak-Spacewatch MPS 149696
2005 11 05.16681 02 30 41.42 +14 39 16.8 21.0 V 691 – Steward Observatory, Kitt Peak-Spacewatch MPS 149696
2005 11 05.19889 02 30 39.76 +14 39 11.5 20.9 V 691 – Steward Observatory, Kitt Peak-Spacewatch MPS 149696
2005 11 25.27650 02 15 12.85 +13 44 28.5 21.2 V G96 – Mt. Lemmon Survey MPS 152203
2005 11 25.28338 02 15 12.52 +13 44 27.3 21.3 V G96 – Mt. Lemmon Survey MPS 152203
2005 11 25.29051 02 15 12.27 +13 44 27.2 21.5 V G96 – Mt. Lemmon Survey MPS 152203
2005 11 25.29745 02 15 12.02 +13 44 26.0 21.6 V G96 – Mt. Lemmon Survey MPS 152203
2007 01 26.38364 10 09 52.84 +16 50 37.0 21.3 V 691 – Steward Observatory, Kitt Peak-Spacewatch MPS 198160
2007 01 26.40173 10 09 52.11 +16 50 41.4 20.9 V 691 – Steward Observatory, Kitt Peak-Spacewatch MPS 198160
2007 01 26.41958 10 09 51.38 +16 50 46.2 21.2 V 691 – Steward Observatory, Kitt Peak-Spacewatch MPS 198160
2007 02 16.32057 09 53 38.14 +18 20 41.5 20.3 V G96 – Mt. Lemmon Survey MPS 199495
2007 02 16.32457 09 53 37.93 +18 20 42.2 20.6 V G96 – Mt. Lemmon Survey MPS 199495
2007 02 16.32851 09 53 37.68 +18 20 43.0 20.5 V G96 – Mt. Lemmon Survey MPS 199495
2007 02 16.33242 09 53 37.50 +18 20 44.4 20.3 V G96 – Mt. Lemmon Survey MPS 199495
2007 03 16.12172 09 34 06.72 +19 26 48.6 21.6 V 691 – Steward Observatory, Kitt Peak-Spacewatch MPS 203093
2007 03 16.14332 09 34 06.12 +19 26 49.5 21.1 V 691 – Steward Observatory, Kitt Peak-Spacewatch MPS 203093
2007 03 16.16493 09 34 05.45 +19 26 50.5 21.1 V 691 – Steward Observatory, Kitt Peak-Spacewatch MPS 203094
2010 09 29.32870 00 29 36.99 +00 01 57.4 20.6 V G96 – Mt. Lemmon Survey MPS 349451
2010 09 29.33454 00 29 36.70 +00 01 56.1 20.5 V G96 – Mt. Lemmon Survey MPS 349451
2010 09 29.34038 00 29 36.34 +00 01 54.1 20.5 V G96 – Mt. Lemmon Survey MPS 349451
2010 09 29.34619 00 29 36.16 +00 01 53.4 20.9 V G96 – Mt. Lemmon Survey MPS 349451
2013 04 07.33538 13 15 10.08 -05 43 04.7 20.7 V G96 – Mt. Lemmon Survey MPS 462701
2013 04 07.34171 13 15 09.75 -05 43 03.3 20.4 V G96 – Mt. Lemmon Survey MPS 462701
2013 04 07.34808 13 15 09.46 -05 43 02.0 20.5 V G96 – Mt. Lemmon Survey MPS 462701
2013 04 07.35455 13 15 09.14 -05 43 00.6 20.6 V G96 – Mt. Lemmon Survey MPS 462701
2013 04 07.38868 13 15 07.48 -05 42 52.4 20.6 V G96 – Mt. Lemmon Survey MPS 462701
2013 04 07.39605 13 15 07.09 -05 42 50.9 20.7 V G96 – Mt. Lemmon Survey MPS 462701
2013 04 07.40341 13 15 06.73 -05 42 49.2 20.6 V G96 – Mt. Lemmon Survey MPS 462701
2013 04 07.41074 13 15 06.37 -05 42 48.0 21.4 V G96 – Mt. Lemmon Survey MPS 462701
2013 04 11.33746 13 11 59.96 -05 28 03.4 20.5 V G96 – Mt. Lemmon Survey MPS 462701
2013 04 11.34436 13 11 59.60 -05 28 02.2 20.3 V G96 – Mt. Lemmon Survey MPS 462701
2013 04 11.35140 13 11 59.28 -05 28 01.1 20.2 V G96 – Mt. Lemmon Survey MPS 462701
2013 04 11.35840 13 11 58.88 -05 27 59.0 20.3 V G96 – Mt. Lemmon Survey MPS 462701
2013 04 11.38023 13 11 58.108 -05 27 53.53 20.8 w F51 – Pan-STARRS 1, Haleakala MPS 462701
2013 04 11.39387 13 11 57.445 -05 27 50.61 20.6 w F51 – Pan-STARRS 1, Haleakala MPS 462701
2013 04 11.40761 13 11 56.767 -05 27 47.50 20.8 w F51 – Pan-STARRS 1, Haleakala MPS 462701
2016 10 25.56151 03 36 12.828 +19 53 50.06 21.3 w F51 – Pan-STARRS 1, Haleakala MPS 739549
2016 10 25.57511 03 36 12.279 +19 53 49.08 21.3 w F51 – Pan-STARRS 1, Haleakala MPS 739549
2016 10 25.60232 03 36 11.096 +19 53 46.84 21.2 w F51 – Pan-STARRS 1, Haleakala MPS 739549
2016 11 05.24830 03 27 59.50 +19 37 29.4 20.3 V G96 – Mt. Lemmon Survey MPS 744946
2016 11 05.25256 03 27 59.26 +19 37 29.6 20.8 V G96 – Mt. Lemmon Survey MPS 744946
2016 11 05.25684 03 27 59.07 +19 37 28.9 20.3 V G96 – Mt. Lemmon Survey MPS 744946
2016 11 05.26286 03 27 58.71 +19 37 28.6 20.9 V G96 – Mt. Lemmon Survey MPS 744946
2016 11 18.36961 03 16 33.16 +19 09 50.4 20.9 V G96 – Mt. Lemmon Survey MPS 747222
2016 11 18.37396 03 16 32.89 +19 09 50.3 20.5 V G96 – Mt. Lemmon Survey MPS 747222
2016 11 18.37829 03 16 32.68 +19 09 49.4 21.0 V G96 – Mt. Lemmon Survey MPS 747222
2016 11 18.38258 03 16 32.44 +19 09 49.9 20.9 V G96 – Mt. Lemmon Survey MPS 747222
2016 12 07.34418 03 01 34.17 +18 28 12.9 21.3 V G96 – Mt. Lemmon Survey MPS 751751
2016 12 07.34736 03 01 34.04 +18 28 12.3 22.2 V G96 – Mt. Lemmon Survey MPS 751751
2016 12 07.35055 03 01 33.88 +18 28 12.4 21.4 V G96 – Mt. Lemmon Survey MPS 751751
2016 12 07.35371 03 01 33.78 +18 28 11.3 21.1 V G96 – Mt. Lemmon Survey MPS 751751
2018 02 12.40971 10 50 13.386 +12 41 22.38 20.7 w F51 – Pan-STARRS 1, Haleakala MPS 869882
2018 02 12.42140 10 50 12.866 +12 41 25.54 20.5 w F51 – Pan-STARRS 1, Haleakala MPS 869882
2018 02 12.43311 10 50 12.336 +12 41 28.84 20.7 w F51 – Pan-STARRS 1, Haleakala MPS 869882
2018 02 12.44495 10 50 11.813 +12 41 32.04 20.7 w F51 – Pan-STARRS 1, Haleakala MPS 869882
2018 02 25.20332 10 40 15.98 +13 38 22.4 20.7 G G96 – Mt. Lemmon Survey MPS 872581
2018 02 25.20843 10 40 15.73 +13 38 23.6 20.6 G G96 – Mt. Lemmon Survey MPS 872581
2018 02 25.21354 10 40 15.47 +13 38 24.9 20.9 G G96 – Mt. Lemmon Survey MPS 872581
2018 02 25.21864 10 40 15.18 +13 38 26.2 20.3 G G96 – Mt. Lemmon Survey MPS 872581
2018 03 16.23973 10 25 37.29 +14 44 03.5 21.0 G G96 – Mt. Lemmon Survey MPS 875949
2018 03 16.24489 10 25 37.08 +14 44 03.8 21.4 G G96 – Mt. Lemmon Survey MPS 875949
